Location: Fr�migoux
(45.2500°N, 2.2500°E)
Time: 13:49:35
(UTC+00:00)

Daily predictions for brighter satellites

Satellite Brightness Start Highest point End
(mag) Time Altitude Azimuth Time Altitude Azimuth Time Altitude Azimuth
ATLAS CENTAUR R/B 3.5 20:15:52 10° N 20:17:56 14° NE 20:19:57 10° ENE
Cosmos 1703 4.2 20:16:43 10° SSE 20:20:04 29° E 20:23:27 10° NNE
COSMOS 2428 4.2 20:17:13 10° SE 20:20:49 18° E 20:24:26 10° ENE
Geosat 4.3 20:16:19 10° SSE 20:21:19 70° WSW 20:26:22 10° NNW
Cosmos 1812 Rocket 3.6 20:18:22 10° N 20:22:43 70° E 20:27:01 10° SSE
Cosmos 1844 4.4 20:18:21 10° NNW 20:23:52 43° NE 20:29:17 10° SE
Cosmos 2322 4.5 20:19:28 10° SSE 20:24:27 32° ESE 20:29:26 10° NE
CZ-2C R/B 4.3 20:21:54 10° N 20:26:39 68° WNW 20:31:23 10° SSW
Cosmos 1602 Rocket 3.6 20:24:21 10° S 20:28:45 89° W 20:33:14 10° N
Cosmos 2263 Rocket 3.7 20:27:17 10° NW 20:32:10 32° WSW 20:37:02 10° SSW
Nadezhda 1 Rocket 4.1 20:26:56 10° N 20:33:23 77° E 20:39:46 10° SSE
Atlas Centaur 2 3.7 20:29:40 10° SW 20:33:55 20° S 20:38:47 10° SE
MetOp-B 4.2 20:28:41 10° SSE 20:34:00 72° ENE 20:39:21 10° N
Terra 3.5 20:32:13 10° ESE 20:35:41 20° ENE 20:39:08 10° NNE
Cosmos 2219 Rocket 3.2 20:32:10 10° SSE 20:36:42 26° ESE 20:41:15 10° NE
Cosmos 2360 Rocket 2.2 20:32:44 10° SSW 20:38:20 74° ESE 20:44:01 10° NNE
IGS 5A 3.7 20:35:38 10° SSE 20:39:41 54° ENE 20:43:45 10° N
Cosmos 2333 Rocket 2.9 20:41:21 10° SSE 20:46:23 34° ESE 20:51:28 10° NE
ATLAS 2AS CENTAUR R/B 4.5 20:43:44 10° NNW 20:50:13 28° NNE 20:56:18 10° E
Resurs 01 Rocket 2.5 20:47:15 10° S 20:51:30 47° W 20:55:47 10° NNW
Cosmos 1315 Rocket 4.3 20:48:11 10° NNE 20:51:32 24° ENE 20:54:13 13° ESE
Cosmos 1818 3.6 20:48:07 10° SW 20:53:34 89° NW 20:59:02 10° NE
CZ-2C R/B 4.4 20:49:44 10° N 20:54:39 36° WNW 20:59:26 10° SW
Cosmos-2242 3.0 20:50:55 10° N 20:55:15 70° E 20:59:06 13° SSE
Cosmos 773 Rocket 4.2 20:51:21 10° S 20:56:27 51° ESE 21:01:34 10° NNE
SL-16 R/B 3.8 20:52:08 10° SW 20:57:25 39° NW 21:02:44 10° NNE
Cosmos 2221 4.3 20:56:50 10° NNE 20:59:58 19° ENE 21:02:29 12° ESE
ERS-1 Rocket 3.3 20:56:51 14° SE 21:00:59 53° ENE 21:05:54 10° N
GEOS 3 Rocket 3.6 20:59:17 10° NE 21:04:43 79° SE 21:10:06 10° SW
USA 215 3.3 21:01:46 10° ENE 21:08:11 55° SE 21:14:35 10° SSW
Cosmos 2278 Rocket 3.6 21:03:46 10° N 21:08:38 28° NE 21:13:09 11° ESE
ATLAS 5 CENTAUR R/B 1.8 21:06:11 10° SW 21:10:17 72° NW 21:14:56 10° NE
Meteor 1-11 4.3 21:05:39 10° S 21:11:11 62° E 21:16:48 10° NNE
USA 245 3.5 21:08:35 14° S 21:11:15 60° W 21:15:16 10° NNW
Cosmos 1844 Rocket 2.9 21:08:13 10° NNW 21:13:45 69° WSW 21:18:16 16° SSE
Cosmos 1758 Rocket 4.1 21:09:50 10° SSW 21:14:17 61° W 21:18:45 10° N
Cosmos 1400 Rocket 2.9 21:10:36 10° NNW 21:14:35 71° W 21:17:41 15° S
SPOT 5 3.0 21:13:56 18° SSE 21:17:41 65° ENE 21:22:28 10° N
Lacrosse 5 rocket 4.2 21:16:24 10° NW 21:19:12 17° N 21:21:55 10° NNE
Spot 2 Rocket 4.0 21:16:44 11° S 21:21:33 56° W 21:26:35 10° NNW
USA 81 4.1 21:19:52 15° S 21:24:10 68° E 21:29:26 10° N
Landsat 7 4.5 21:21:48 12° S 21:26:05 52° W 21:30:45 10° NNW
Cosmos 2058 4.5 21:25:00 18° ESE 21:26:11 20° E 21:29:13 10° NE
BREEZE M DEB (TANK) 1.4 21:24:44 10° WNW 21:27:12 68° SSW 21:27:39 46° SE
Cosmos 2181 Rocket 4.0 21:23:10 10° N 21:29:33 80° E 21:34:14 19° SSE
Cosmos 2074 Rocket 4.4 21:29:15 20° SSE 21:33:20 47° E 21:39:15 10° NNE
SPOT 1/Viking Rocket 4.1 21:31:53 14° S 21:36:09 54° W 21:41:14 10° NNW
Cosmos 1953 Rocket 3.9 21:33:11 10° SSW 21:37:24 63° W 21:41:43 10° N
USA 267 3.7 21:34:05 10° ESE 21:40:26 59° NNE 21:46:52 10° NW
Cosmos 2084 3.6 21:41:23 10° NW 21:45:51 75° NE 21:48:05 29° SE
Cosmos 1842 Rocket 3.6 21:42:43 10° N 21:47:03 65° E 21:49:02 31° SSE
OAO 2 Rocket 4.4 21:43:14 10° WSW 21:47:40 27° S 21:48:29 26° SSE
MTI 3.8 21:49:45 10° NNE 21:52:47 51° E 21:53:10 47° SE
Cosmos 923 Rocket 4.3 21:52:20 27° SSE 21:54:47 47° ESE 21:59:51 10° NNE
ATLAS CENTAUR R/B 0.9 21:53:38 10° NW 21:57:20 81° SW 21:58:26 43° SSE
Cosmos 1825 4.0 21:58:09 17° E 21:58:19 17° E 22:00:52 10° NE
Cosmos 1980 4.0 21:56:55 27° SSE 21:59:33 45° ESE 22:04:54 10° NE
COSMOS 2428 2.9 21:58:45 10° SSW 22:04:25 74° WNW 22:10:07 10° NNE
Cosmos 1869 3.2 22:04:01 10° N 22:08:01 89° ENE 22:09:22 41° S
NOSS 0 Rocket 3.9 22:07:31 20° SSW 22:11:49 69° ESE 22:17:57 10° NNE
Terra 2.3 22:10:34 26° SSW 22:13:03 52° W 22:17:43 10° NNW
NOSS 3-4 (A) 4.2 22:07:34 10° NNW 22:14:25 60° NE 22:19:46 20° ESE
NOSS 3-4 (C) 4.2 22:07:40 10° NNW 22:14:32 60° NE 22:19:55 20° ESE
Cosmos 2237 Rocket 2.3 22:14:58 29° S 22:17:46 60° ESE 22:23:23 10° NNE
Genesis I 3.7 22:18:36 40° ESE 22:18:36 40° ESE 22:22:04 10° NE
Cosmos 2344 3.8 22:16:02 24° S 22:20:16 48° ESE 22:27:40 10° NE
Cosmos 2219 Rocket 3.0 22:14:54 10° SW 22:20:19 50° WNW 22:25:47 10° NNE
BREEZE-M DEB 4.4 22:16:18 10° WNW 22:20:35 82° SSW 22:38:45 10° ESE
BREEZE-M R/B 4.2 22:12:08 10° WNW 22:21:35 49° SW 22:23:36 34° S
Elektron 1 4.1 22:21:21 54° S 22:21:54 66° SE 22:26:37 10° NE
Atlas Centaur 2 4.0 22:17:32 10° SW 22:21:21 20° SSW 22:21:21 20° SSW
NOSS 3-3 (A) 4.4 22:17:17 10° SW 22:23:06 62° NW 22:29:43 10° NE
NOSS 3-3 (C) 4.4 22:17:22 10° SW 22:23:12 63° NW 22:29:50 10° NE
Cosmos 1315 Rocket 4.4 22:24:31 10° NNW 22:28:06 29° W 22:29:55 21° SW
DELTA 2 R/B (1) 3.9 22:23:08 10° SW 22:28:19 40° SSE 22:30:03 32° SE
Cosmos 2333 Rocket 3.4 22:25:11 10° SW 22:30:32 41° NW 22:35:57 10° NNE
Cosmos 2184 Rocket 4.2 22:27:10 21° SSW 22:31:27 68° W 22:37:45 10° N
Thor Agena Rocket 3.6 22:26:31 10° NNE 22:31:36 61° ESE 22:33:18 39° SSE
Cosmos 2221 3.4 22:33:36 10° NNW 22:37:45 43° W 22:39:20 30° SW
BREEZE-M DEB (TANK) 2.5 22:36:34 10° WNW 22:40:35 47° N 22:41:22 34° ENE
Iridium 2 3.6 22:38:07 10° N 22:41:58 77° E 22:42:26 64° SE
Cosmos 1371 Rocket 4.1 22:37:02 10° NNW 22:42:18 69° ENE 22:44:15 39° SE
ATLAS 2AS CENTAUR R/B 2.9 22:34:51 10° NW 22:42:28 77° NE 22:46:25 29° SE
Cosmos 1892 3.2 22:41:59 39° SW 22:43:02 53° W 22:46:46 10° N
EO 1 Del DPAF 3.0 22:40:53 10° NNE 22:44:39 72° ESE 22:44:59 66° SE
Cosmos 1766 Rocket 4.4 22:44:24 34° ESE 22:44:55 35° E 22:48:56 10° NNE
MOS 1-B Rocket 4.3 22:38:55 10° NNE 22:46:38 74° ESE 22:49:57 33° S
Okean 3 Rocket 4.1 22:47:03 41° ESE 22:47:41 44° E 22:51:55 10° NNE
Aureole 2 Rocket 3.6 22:46:45 10° N 22:48:59 28° NE 22:48:59 28° NE
Cosmos 2112 Rocket 4.0 22:48:24 34° SSW 22:50:47 88° WNW 22:56:12 10° NNE
USA 215 3.9 22:44:50 10° NE 22:51:13 56° NNW 22:57:34 10° WSW
Cosmos 1606 3.5 22:48:14 10° N 22:51:54 38° ENE 22:52:19 37° E
Cosmos 2278 Rocket 2.6 22:47:31 10° NW 22:53:01 52° WSW 22:54:59 36° SSW
Cosmos 2297 4.3 22:48:54 10° NNW 22:54:29 51° ENE 22:57:11 29° ESE
Cosmos 158 Rocket 3.9 22:52:56 34° SSW 22:55:01 75° WNW 22:59:56 10° NNE
Lacrosse 5 rocket 4.0 22:56:47 10° NNW 22:59:39 18° NNE 23:02:25 10° ENE
Spot 4 3.9 22:59:07 47° S 23:00:25 72° WSW 23:05:13 10° NNW
Cosmos 1943 Rocket 3.7 22:55:58 10° N 23:00:56 30° NE 23:04:40 15° ESE
SL-16 R/B 2.5 23:00:46 41° SSE 23:02:07 50° ESE 23:07:36 10° NE
TIMED 4.4 23:01:49 58° SSW 23:02:39 85° ESE 23:07:03 10° NNE
Cosmos 2058 4.2 23:01:10 25° WSW 23:02:50 35° WNW 23:06:41 10° N
Cosmos 1408 3.2 23:03:24 43° WSW 23:03:52 47° WNW 23:07:21 10° N
Cosmos 2056 Rocket 3.5 23:00:50 10° NNW 23:06:17 88° WSW 23:07:58 46° SSE
Cosmos 2341 Rocket 3.9 23:11:46 38° S 23:14:24 86° W 23:20:39 10° N
Cosmos 1680 Rocket 4.4 23:15:58 20° SW 23:19:18 45° WNW 23:24:26 10° N
Meteor 2-3 Rocket 4.0 23:21:02 41° SE 23:22:34 54° E 23:28:07 10° NNE
USA 267 3.5 23:21:24 38° S 23:23:30 51° SW 23:29:53 10° WNW
Cosmos 2151 3.4 23:23:52 45° WSW 23:24:46 55° WNW 23:28:59 10° N
IRIDIUM 104 4.3 23:23:26 50° SSE 23:24:48 78° E 23:30:03 10° N
Helios 1A 3.5 23:24:53 44° ESE 23:25:35 49° ENE 23:29:38 10° N
Cosmos 405 4.5 23:25:54 10° NNE 23:29:00 27° ENE 23:29:08 27° ENE
Meteor 1-26 Rocket 4.5 23:27:13 10° N 23:33:14 69° ENE 23:35:20 41° SSE
Cosmos 1452 Rocket 3.8 23:28:05 10° NNW 23:33:19 59° ENE 23:35:06 39° SE
SL-8 Rocket 3.9 23:30:58 40° SSW 23:33:20 82° W 23:39:33 10° N
Cosmos 1825 3.4 23:32:56 31° W 23:33:33 33° WNW 23:37:02 10° N
CZ-4C R/B 4.1 23:27:09 10° NNW 23:33:39 39° NE 23:41:05 10° ESE
IRIDIUM 114 4.2 23:32:35 51° S 23:33:58 87° W 23:39:13 10° N
Cosmos 1340 2.6 23:34:23 73° ENE 23:34:23 73° ENE 23:38:02 10° NNE
COSMOS 2455 3.4 23:29:02 10° NNW 23:34:59 55° NE 23:38:24 25° ESE
ALOS 2 2.7 23:35:27 54° SW 23:35:59 59° WSW 23:40:20 10° NNW
Cosmos 1408 Rocket 3.4 23:35:56 66° SSE 23:36:25 74° E 23:40:49 10° NNE
Cosmos 1933 3.2 23:34:00 10° N 23:38:01 81° W 23:38:13 78° SW
Cosmos 1151 Rocket 2.9 23:35:16 10° NNW 23:39:35 74° W 23:40:03 66° SW
Meteor 2-12 Rocket 4.4 23:37:27 43° S 23:39:38 89° W 23:45:49 10° N
IRIDIUM 103 4.4 23:41:42 48° SSW 23:43:07 73° W 23:48:21 10° N
Cosmos 44 3.2 23:43:37 48° WSW 23:44:41 67° NW 23:49:06 10° NNE
APEX 4.1 23:42:35 10° NNW 23:44:22 34° N 23:44:22 34° N
Cosmos 1500 Rocket 4.1 23:44:49 43° ESE 23:45:16 44° E 23:49:27 10° NNE
Cosmos 2369 Rocket 3.1 23:40:19 10° NNW 23:45:40 44° ENE 23:48:49 23° ESE
Cosmos 1727 Rocket 4.0 23:39:28 10° N 23:45:44 75° E 23:48:04 41° SSE
SL-4 R/B 4.0 23:48:59 12° NNW 23:48:59 12° NNW 23:49:12 10° NNW
GP-B 3.5 23:43:44 10° N 23:48:03 52° W 23:48:50 46° WSW
Cosmos 371 Rocket 3.2 23:44:43 10° NNW 23:49:35 77° WSW 23:50:25 60° S
CREW DRAGON DEMO-1 DEB 4.3 23:54:49 35° NW 23:55:12 37° NNW 23:58:06 10° NE
Helios 1B rocket 3.4 23:51:29 10° NNE 23:55:15 34° E 23:55:23 33° ESE
